Home > Weather > Kelowna > Past weeks

Flag for Canada Past Weather in Kelowna, British Columbia, Canada — Yesterday and Last 2 Weeks

Now
79 °F

Sunny.


Feels Like: 79 °F
Forecast: 52 / 87 °F
Wind: 7 mph from North

Location: Kelowna Airport

Current Time: Aug 29, 2016 at 8:21:35 PM

Latest Report: Aug 29, 2016 at 7:00 PM


Visibility: 9 mi

Pressure: 29.87 "Hg

Humidity: 39%

Dew Point: 52 °F

Location of KelownaLocation

Past Weather in Kelowna — Graph

°F

Kelowna Temperature Yesterday

Maximum temperature yesterday: 77 °F (at 1:55 PM)
Minimum temperature yesterday: 50 °F (at 7:00 AM)
Average temperature yesterday: 65 °F

High & Low Weather Summary for the Past Weeks

 TemperatureHumidityPressure
High93 °F (Aug 16, 4:00 PM)94% (Aug 23, 4:00 AM)30.32 "Hg (Aug 23, 4:00 AM)
Low48 °F (Aug 18, 6:00 AM)18% (Aug 19, 3:00 PM)29.55 "Hg (Aug 21, 5:00 PM)
Average69 °F53%29.97 "Hg
* Reported Aug 14 7:00 PM — Aug 29 7:00 PM, Kelowna, Weather by CustomWeather, © 2016

Note: Actual official high and low records may vary slightly from our data, if they occured in-between our weather recording intervals... More about our weather records

Advertising

Kelowna Weather History for the Previous 24 Hours

Scroll right to see more
 ConditionsComfort  
Time TempWeatherWind HumidityBarometerVisibility
7:00 PM
Mon, Aug 29
79 °FSunny.7 mph39%29.87 "Hg9 mi
6:00 PM82 °FSunny.8 mph35%29.86 "Hg9 mi
5:00 PM84 °FSunny.8 mph31%29.87 "Hg9 mi
4:00 PM84 °FSunny.7 mph31%29.89 "Hg9 mi
3:00 PM81 °FSunny.3 mph32%29.92 "Hg9 mi
2:00 PM79 °FSunny.6 mph42%29.95 "Hg9 mi
1:00 PM75 °FSunny.No wind44%29.98 "Hg9 mi
12:00 PM72 °FSunny.2 mph53%30.01 "Hg9 mi
11:00 AM70 °FSunny.2 mph60%30.05 "Hg9 mi
10:00 AM66 °FSunny.2 mph68%30.07 "Hg9 mi
9:00 AM63 °FSunny.2 mph77%30.08 "Hg9 mi
8:00 AM61 °FSunny.No wind77%30.09 "Hg9 mi
7:00 AM54 °FClear.No wind88%30.09 "Hg9 mi
6:00 AM52 °FClear.3 mph94%30.08 "Hg9 mi
5:00 AM55 °FClear.No wind88%30.08 "Hg9 mi
4:00 AM57 °FClear.5 mph82%30.06 "Hg9 mi
3:00 AM59 °FPartly cloudy.2 mph88%30.06 "Hg9 mi
2:00 AM63 °FPassing clouds.3 mph83%30.05 "Hg9 mi
1:00 AM64 °FPassing clouds.6 mph83%30.05 "Hg9 mi
12:00 AM61 °FPassing clouds.5 mph88%30.04 "Hg9 mi
11:00 PM
Sun, Aug 28
63 °FLight rain. Overcast.3 mph88%30.04 "Hg9 mi
10:51 PM63 °FLight rain. Mostly cloudy.No wind83%30.06 "Hg9 mi
10:00 PM64 °FLight rain. Mostly cloudy.2 mph78%30.06 "Hg9 mi
9:52 PM68 °FLight rain. Mostly cloudy.No wind64%30.06 "Hg9 mi
9:00 PM68 °FOvercast.3 mph64%30.05 "Hg9 mi
8:00 PM70 °FMostly cloudy.6 mph60%30.03 "Hg9 mi
Weather by CustomWeather, © 2016

See weather overviewHow to use our weather pages